Date,TemperatureHighF,TemperatureAvgF,TemperatureLowF,DewpointHighF,DewpointAvgF,DewpointLowF,HumidityHigh,HumidityAvg,HumidityLow,PressureMaxIn,PressureMinIn,WindSpeedMaxMPH,WindSpeedAvgMPH,GustSpeedMaxMPH,PrecipitationSumIn
2014-1-1,70,51,34,23,19,15,48,31,16,30.32,30.02,0,0,0,0.00
2014-1-2,67,54,41,23,21,18,47,28,18,30.36,30.15,0,0,0,0.00
2014-1-3,74,54,41,28,22,17,45,29,15,30.27,29.95,10,0,14,0.00
2014-1-4,67,54,43,23,20,17,43,28,18,30.19,29.98,0,0,0,0.00
2014-1-5,63,49,36,29,20,10,57,34,20,30.33,30.10,0,0,0,0.00
2014-1-6,64,44,29,22,10,0,39,25,19,30.39,30.16,0,0,0,0.00
2014-1-7,72,50,32,22,13,0,26,23,15,30.36,30.05,0,0,0,0.00
2014-1-8,70,53,36,23,18,10,46,26,17,30.25,30.03,0,0,0,0.00
2014-1-9,62,44,33,22,18,12,51,37,20,30.25,30.07,0,0,0,0.00
2014-1-10,68,48,30,23,20,15,57,36,17,30.26,30.03,0,0,0,0.00
2014-1-11,73,50,33,27,21,17,56,35,15,30.36,30.04,0,0,0,0.00
2014-1-12,71,54,38,26,22,16,48,30,15,30.26,29.99,0,0,0,0.00
2014-1-13,69,50,35,29,18,2,55,31,16,30.45,30.22,0,0,0,0.00
2014-1-14,68,50,35,22,14,3,31,23,16,30.45,30.24,0,0,0,0.00
2014-1-15,70,54,38,23,15,7,28,22,15,30.48,30.15,0,0,0,0.00
2014-1-16,72,53,34,23,15,6,37,23,15,30.32,30.06,0,0,0,0.00
2014-1-17,70,52,36,23,14,4,30,22,15,30.37,30.08,0,0,0,0.00
2014-1-18,73,52,33,23,14,4,33,22,14,30.31,30.02,0,0,0,0.00
2014-1-19,71,56,46,23,17,11,27,22,15,30.40,30.11,0,0,0,0.00
2014-1-20,75,54,38,28,17,10,35,24,14,30.40,30.07,4,0,8,0.00
2014-1-21,69,57,42,22,18,10,27,22,16,30.44,30.14,0,0,0,0.00
2014-1-22,74,59,42,30,20,10,33,22,15,30.22,29.95,1,0,4,0.00
2014-1-23,71,55,39,23,20,14,46,27,15,30.35,30.06,0,0,0,0.00
2014-1-24,56,49,41,26,19,16,41,30,22,30.56,30.34,0,0,0,0.00
2014-1-25,69,56,46,47,40,22,83,55,33,30.42,30.10,0,0,0,0.00
2014-1-26,47,41,40,43,38,38,93,91,83,30.22,30.16,0,0,0,0.00
2014-1-27,75,61,44,53,34,26,63,38,23,30.66,29.62,9,1,17,0.00
2014-1-28,69,51,34,30,22,14,66,36,16,30.14,29.86,0,0,0,0.00
2014-1-29,72,54,37,23,18,11,45,26,14,30.11,29.81,0,0,1,0.00
2014-1-30,75,59,43,28,20,10,28,22,15,30.05,29.74,0,0,0,0.00
2014-1-31,69,59,53,36,27,22,53,29,20,29.94,29.69,0,0,0,0.00
2014-2-1,61,51,39,38,32,25,68,50,26,29.91,29.72,0,0,0,0.00
2014-2-2,59,44,31,28,19,11,66,40,21,30.11,29.85,0,0,0,0.00
2014-2-3,57,43,30,34,17,6,82,37,21,29.97,29.75,1,0,50,0.00
2014-2-4,55,41,27,30,23,19,82,54,25,30.07,29.92,0,0,0,0.00
2014-2-5,63,45,31,27,23,18,69,45,20,30.09,29.81,1,0,1,0.00
2014-2-6,63,46,32,30,23,17,71,45,20,30.11,29.91,0,0,0,0.00
2014-2-7,63,51,39,34,27,19,74,42,21,30.13,29.99,0,0,0,0.00
2014-2-8,72,51,36,30,24,18,59,37,15,30.25,30.03,0,0,0,0.00
2014-2-9,76,57,40,36,28,24,58,36,17,30.24,29.87,0,0,0,0.00
2014-2-10,77,59,42,32,27,22,53,33,15,30.11,29.74,0,0,0,0.00
2014-2-11,69,55,42,35,27,18,64,37,17,30.11,29.85,0,0,0,0.00
2014-2-12,74,55,37,28,20,10,45,27,14,30.25,29.91,0,0,0,0.00
2014-2-13,78,61,42,29,22,12,35,22,15,30.22,29.85,0,0,0,0.00
2014-2-14,84,63,43,34,24,18,42,24,14,30.18,29.83,0,0,0,0.00
2014-2-15,87,66,47,35,24,16,35,22,14,30.14,29.77,0,0,0,0.00
2014-2-16,83,65,49,34,22,14,26,19,14,30.09,29.73,0,0,0,0.00
2014-2-17,82,65,50,29,22,15,27,20,14,30.10,29.77,0,0,0,0.00
2014-2-18,81,63,45,29,22,14,30,21,14,30.05,29.71,0,0,0,0.00
2014-2-19,79,60,42,29,20,15,36,22,14,29.97,29.72,0,0,0,0.00
2014-2-20,72,56,40,23,17,8,30,22,14,30.10,29.83,0,0,0,0.00
2014-2-21,76,55,36,28,16,3,28,22,14,30.19,29.83,0,0,0,0.00
2014-2-22,77,59,41,29,18,7,25,20,14,30.11,29.74,0,0,0,0.00
2014-2-23,73,61,49,31,21,14,35,22,15,30.09,29.88,0,0,0,0.00
2014-2-24,76,62,47,30,25,18,43,26,15,30.07,29.78,0,0,0,0.00
2014-2-25,71,60,51,38,28,19,47,31,16,30.04,29.91,0,0,0,0.00
2014-2-26,75,61,44,41,33,22,72,38,15,30.08,29.75,0,0,11,0.00
2014-2-27,75,60,41,36,30,24,65,36,17,30.01,29.69,0,0,0,0.00
2014-2-28,77,62,45,36,31,26,59,34,18,29.96,29.67,0,0,0,0.00
2014-3-1,63,56,46,49,40,27,94,58,29,29.94,29.81,29,4,59,0.85
2014-3-2,61,51,41,43,40,35,97,67,43,30.13,29.88,14,5,28,0.02
2014-3-3,69,55,44,44,39,32,87,60,26,30.07,29.83,8,3,13,0.00
2014-3-4,73,57,45,44,37,23,81,53,17,30.03,29.80,14,5,21,0.00
2014-3-5,73,58,42,42,32,22,77,43,15,30.11,29.88,6,3,13,0.00
2014-3-6,79,62,47,38,30,24,58,32,15,30.14,29.84,9,4,17,0.00
2014-3-7,74,62,45,42,33,23,69,38,16,29.95,29.72,14,5,29,0.00
2014-3-8,71,55,46,44,36,23,90,55,17,30.13,29.79,16,6,28,0.02
2014-3-9,60,51,41,40,31,24,82,50,25,30.26,30.03,13,7,26,0.00
2014-3-10,75,57,38,37,33,29,83,43,21,30.18,29.85,13,5,21,0.00
2014-3-11,74,58,41,40,30,23,75,40,16,30.03,29.78,14,4,100,0.00
2014-3-12,69,58,45,35,27,22,61,33,18,30.06,29.87,15,8,27,0.00
2014-3-13,75,62,50,33,27,23,38,27,16,30.04,29.75,14,8,34,0.00
2014-3-14,68,56,42,33,28,21,59,36,19,30.01,29.84,16,6,36,0.00
2014-3-15,70,57,40,32,24,15,67,32,16,30.12,29.86,22,9,35,0.00
2014-3-16,68,55,42,22,16,8,26,21,17,30.26,29.96,16,5,27,0.00
2014-3-17,80,61,38,29,21,10,46,23,14,30.10,29.59,12,6,27,0.00
2014-3-18,76,64,51,29,22,15,25,20,14,29.82,29.67,14,6,27,0.00
2014-3-19,78,60,43,31,23,15,52,25,14,30.03,29.81,8,4,21,0.00
2014-3-20,77,62,43,29,23,19,43,24,14,30.04,29.75,12,6,23,0.00
2014-3-21,76,64,46,28,24,20,45,22,14,29.93,29.71,15,7,29,0.00
2014-3-22,76,64,51,29,22,15,27,21,15,30.00,29.72,17,7,40,0.00
2014-3-23,78,62,45,30,25,19,52,27,15,30.08,29.78,8,4,17,0.00
2014-3-24,80,63,46,29,24,18,45,24,15,30.07,29.79,9,4,21,0.00
2014-3-25,77,62,44,32,25,19,51,27,15,29.96,29.65,14,7,30,0.00
2014-3-26,73,60,43,33,24,20,55,27,15,29.91,29.62,36,13,68,1.52
2014-3-27,70,60,47,35,30,23,55,34,18,29.89,29.68,16,7,28,0.00
2014-3-28,73,57,39,34,26,22,66,34,15,30.08,29.86,8,3,15,0.00
2014-3-29,80,62,42,30,25,19,55,28,14,30.18,29.77,10,5,30,0.00
2014-3-30,79,66,50,29,23,18,34,21,14,30.03,29.68,18,9,34,0.00
2014-3-31,76,63,44,29,22,14,42,22,14,30.04,29.73,16,5,27,0.00
2014-4-1,76,64,54,28,22,18,26,20,14,30.03,29.74,19,8,36,0.00
2014-4-2,69,58,46,26,19,14,43,22,16,29.92,29.72,31,12,56,0.00
2014-4-3,66,52,38,32,22,14,70,35,17,30.06,29.91,7,4,14,0.00
2014-4-4,72,57,38,22,19,13,39,24,14,30.07,29.80,15,7,25,0.00
2014-4-5,66,56,45,24,19,11,35,24,18,29.96,29.75,15,5,30,0.00
2014-4-6,69,57,45,23,20,15,35,24,16,30.04,29.83,14,7,27,0.00
2014-4-7,78,63,47,28,21,15,31,21,14,30.13,29.96,8,5,17,0.00
2014-4-8,85,68,50,35,24,16,27,19,13,30.21,29.97,11,4,18,0.00
2014-4-9,89,72,53,34,25,15,24,18,13,30.14,29.85,10,5,36,0.00
2014-4-10,89,72,47,35,25,13,25,18,13,30.10,29.79,12,5,23,0.00
2014-4-11,86,73,59,35,26,20,23,17,14,30.02,29.77,19,7,27,0.00
2014-4-12,80,70,60,29,24,21,22,18,14,29.87,29.63,22,11,41,0.00
2014-4-13,80,64,42,29,22,11,33,20,14,29.95,29.63,12,5,24,0.00
2014-4-14,78,65,50,29,23,14,35,21,14,29.98,29.83,8,4,20,0.00
2014-4-15,85,67,47,35,23,13,25,19,13,30.07,29.65,11,6,24,0.00
2014-4-16,83,68,47,34,22,13,26,18,13,29.89,29.67,13,6,30,0.00
2014-4-17,83,68,46,34,24,16,38,21,13,29.98,29.78,9,4,19,0.00
2014-4-18,75,65,55,42,35,23,41,33,22,29.95,29.84,15,5,32,0.00
2014-4-19,73,64,52,51,42,34,72,47,24,30.17,29.38,20,6,26,0.00
2014-4-20,80,64,44,45,38,33,81,43,19,30.01,29.79,7,3,14,0.00
2014-4-21,85,72,56,40,34,27,50,27,14,29.98,29.71,8,4,16,0.00
2014-4-22,86,72,54,40,32,22,45,24,14,29.83,29.51,15,7,29,0.00
2014-4-23,81,68,52,31,27,20,38,22,14,29.74,29.55,16,6,34,0.00
2014-4-24,84,67,45,34,24,15,35,20,13,29.87,29.66,13,5,25,0.00
2014-4-25,82,68,46,29,23,16,33,19,13,29.83,29.63,17,7,34,0.00
2014-4-26,71,62,51,38,29,20,60,30,17,29.72,29.48,28,14,67,0.00
2014-4-27,73,58,42,39,31,22,76,41,15,29.82,29.57,13,5,24,0.00
2014-4-28,80,63,43,34,28,23,61,30,15,29.86,29.62,13,6,28,0.00
2014-4-29,78,65,54,29,23,19,32,21,14,29.89,29.66,9,5,20,0.00
2014-4-30,79,64,48,28,21,13,25,19,14,29.89,29.61,8,5,17,0.00
2014-5-1,75,64,52,28,23,20,30,21,14,29.87,29.71,10,6,24,0.00
2014-5-2,82,66,46,33,25,21,45,23,13,29.96,29.74,9,4,19,0.00
2014-5-3,87,73,52,34,26,16,25,18,13,29.96,29.66,10,4,20,0.00
2014-5-4,88,74,51,35,27,16,25,18,13,29.92,29.66,17,7,30,0.00
2014-5-5,83,72,53,34,28,22,44,21,13,29.87,29.64,13,6,25,0.00
2014-5-6,80,70,62,32,25,20,26,19,14,29.75,29.49,20,10,45,0.00
2014-5-7,71,62,52,32,22,18,31,21,16,29.75,29.58,22,11,40,0.00
2014-5-8,78,60,41,31,25,19,54,28,14,29.85,29.73,9,4,18,0.00
2014-5-9,84,67,47,34,25,20,40,22,13,29.91,29.69,13,5,31,0.00
2014-5-10,86,71,51,35,28,19,34,21,14,29.83,29.54,14,6,31,0.00
2014-5-11,80,69,56,34,28,19,32,22,15,29.76,29.54,17,10,32,0.00
2014-5-12,80,65,45,29,21,10,26,19,14,29.86,29.68,8,4,18,0.00
2014-5-13,82,67,52,29,23,16,25,19,13,30.01,29.76,9,4,21,0.00
2014-5-14,77,67,54,29,24,21,31,20,15,30.08,29.86,17,8,26,0.00
2014-5-15,88,71,51,34,25,16,26,18,13,30.04,29.82,8,4,17,0.00
2014-5-16,94,78,55,38,29,19,24,17,12,29.95,29.69,11,5,21,0.00
2014-5-17,94,79,61,39,29,20,22,16,12,29.87,29.64,11,4,21,0.00
2014-5-18,91,80,56,37,31,20,24,17,13,29.83,29.63,15,10,24,0.00
2014-5-19,91,88,65,50,35,21,58,16,14,30.00,29.64,15,14,21,0.00
2014-5-20,88,76,60,34,27,20,22,16,13,29.99,29.88,19,8,40,0.00
2014-5-21,85,74,58,35,28,21,27,18,14,29.97,29.72,20,9,42,0.00
2014-5-22,84,72,60,39,31,23,41,23,14,30.02,29.76,20,12,37,0.00
2014-5-23,80,68,57,37,27,20,29,22,14,30.00,29.82,20,10,46,0.00
2014-5-24,79,65,47,34,28,20,50,27,15,30.00,29.87,10,3,100,0.00
2014-5-25,81,69,52,38,34,26,46,29,19,30.03,29.89,10,4,19,0.00
2014-5-26,90,76,55,40,35,30,44,24,14,30.06,29.89,11,5,21,0.00
2014-5-27,98,81,61,42,36,29,37,20,12,30.10,29.89,9,4,19,0.00
2014-5-28,96,82,61,43,35,27,35,19,13,30.07,29.85,11,4,25,0.00
2014-5-29,82,76,70,46,38,22,35,26,15,30.04,29.92,12,5,27,0.00
2014-5-30,80,74,65,51,44,37,59,34,22,29.98,29.92,4,3,7,0.00
2014-5-31,97,86,65,53,39,36,63,21,12,29.97,29.66,14,6,23,0.00
2014-6-1,96,90,65,53,39,34,63,20,13,30.10,29.66,11,10,13,38.89
2014-6-2,83,79,65,53,38,34,63,26,17,30.17,30.06,5,4,8,0.00
2014-6-7,78,61,46,28,23,16,37,25,16,29.90,29.80,7,4,12,0.00
2014-6-8,82,66,40,100,32,22,35,22,13,29.85,29.70,10,4,14,3.02
2014-6-9,74,68,67,42,41,34,41,38,25,29.85,29.76,7,6,15,0.00
2014-6-10,86,71,40,59,52,42,73,52,35,29.89,29.76,11,4,15,0.00
2014-6-11,92,82,40,100,52,-100,54,37,25,31.30,29.68,8,3,10,0.00
2014-6-12,70,40,0,100,21,-13,63,43,1,34.06,0.00,601,1,318,0.02
2014-6-13,52,41,32,31,10,-18,47,32,10,31.00,27.97,716,0,716,0.00
2014-6-14,87,40,0,100,23,-100,47,41,1,34.75,27.97,830,1,830,123.60
2014-6-15,66,36,32,22,10,-13,47,38,10,29.59,29.46,830,0,830,0.00